Regional Weather Roundup
Issued by NWS

Home | Current Version | Previous Version | Graphics & Text | Print | Product List | Glossary On
Versions: 1 2 3 4 5 6 7 8 9 10 11 12 13 14 15 16 17 18 19 20 21 22 23 24 25 26 27 28 29 30 31 32 33 34 35 36 37 38 39 40 41 42 43 44 45 46 47 48 49 50
000
ASUS45 KBOU 022307
RWRCO

WEATHER ROUNDUP FOR COLORADO
NATIONAL WEATHER SERVICE DENVER/BOULDER CO
500 PM MDT SAT MAY 02 2015

NOTE: "FAIR" INDICATES FEW OR NO CLOUDS BELOW 12000 FEET WITH NO
SIGNIFICANT WEATHER AND/OR OBSTRUCTIONS TO VISIBILITY.

COZ001>005-013-030-031-030000-
...NORTHWEST COLORADO...

CITY           SKY/WX    TMP DP  RH WIND       PRES   REMARKS
CRAIG          CLOUDY    59  43  55 E3        30.04R
HAYDEN         CLOUDY    55  39  54 N14G21    30.05R
MEEKER         CLOUDY    66  33  29 MISG      30.00S
MOUNT WERNER   NOT AVBL
STEAMBOAT SPGS CLOUDY    51  41  68 W10G16    30.08R
WALDEN         CLOUDY    43  36  75 S16       30.17R
$$

COZ006>008-011-030000-
...WEST CENTRAL VALLEYS...

CITY           SKY/WX    TMP DP  RH WIND       PRES   REMARKS
GRAND JUNCTION MOSUNNY   80  25  13 W15G26    29.85F
MONTROSE       PTSUNNY   73  30  20 SE14      29.95F
EAGLE          MOSUNNY   64  34  32 E7        30.06F
RIFLE          CLOUDY    74  32  21 E12       29.92F
DELTA          PTSUNNY   82  25  12 W10G18    29.89F
NUCLA          PTSUNNY   77  19  11 NW15      29.98F
$$

COZ017>023-064>068-030000-
...SOUTHWEST COLORADO...

CITY           SKY/WX    TMP DP  RH WIND       PRES   REMARKS
DURANGO        PTSUNNY   69  24  18 SW18G32   30.01S
CORTEZ         SUNNY     78  18  10 NW13G20   29.97F
PAGOSA SPRINGS PTSUNNY   65  29  25 E12G20    30.09F
TELLURIDE      PTSUNNY   58  25  28 S7G18     30.18F
WOLF CREEK PAS NOT AVBL
$$

COZ009-010-012-014-032>034-037-058>063-030000-
...CENTRAL COLORADO...

CITY           SKY/WX    TMP DP  RH WIND       PRES   REMARKS
ASPEN          LGT RAIN  58  31  35 NE5       30.09F
BUENA VISTA    NOT AVBL
COPPER MTN     CLOUDY    43  23  45 W20G29    30.31S
BERTHOUD PASS  FAIR      34  27  75 W14G26    30.33R WCI  24
COTTONWOOD PAS PTSUNNY   57  27  30 E3        30.19F
GUNNISON       CLOUDY    63  28  27 NW15G25   30.13R
KREMMLING      CLOUDY    59  28  31 SW15G23   30.09R
LEADVILLE      CLOUDY    47  28  47 NW13G23   30.20F
MONARCH PASS   PTSUNNY   41  25  52 W21G31    30.41S
SALIDA         PTSUNNY   64  31  28 S13G23    30.13F
SUNLIGHT       CLOUDY    46  28  49 NE3       30.27F
WILKERSON PASS CLOUDY    48  21  34 W6        30.28F
$$

COZ069>075-030000-
...SAN LUIS VALLEY/SANGRE DE CRISTO MOUNTAINS...

CITY           SKY/WX    TMP DP  RH WIND       PRES   REMARKS
ALAMOSA        CLOUDY    56  39  53 E14       30.15F
LA VETA PASS   DRIZZLE   41  32  70 MISG      30.25S
SAGUACHE       CLOUDY    57  32  38 CALM      30.15S
$$

COZ035-036-038>040-030000-
...NORTHERN COLORADO FRONT RANGE...

CITY           SKY/WX    TMP DP  RH WIND       PRES   REMARKS
DENVER INTL AP CLOUDY    65  42  43 E7        29.92F
DMNS CITY PARK   N/A     71  35  27 SW5       29.91F
AURORA         PTSUNNY   70  37  29 NE6       29.94F
FRONT RANGE AP PTSUNNY   68  45  42 E9        29.94F
ERIE MUNI ARPT CLOUDY    68  35  30 W8        29.90S
BOULDER MUN AP CLOUDY    68  32  26 NW9       29.91S
CENTENNIAL     CLOUDY    69  35  28 N9G22     29.95F
BROOMFIELD     NOT AVBL
FORT COLLINS   CLOUDY    68  37  32 W17G26    29.91R
LONGMONT       CLOUDY    70  35  27 W18G25    29.90F
$$

COZ041-046-047-076>085-087-088-030000-
...PIKES PEAK/PALMER DIVIDE AND SOUTHERN FOOTHILLS...

CITY           SKY/WX    TMP DP  RH WIND       PRES   REMARKS
COLO. SPRINGS  CLOUDY    69  36  29 SW13      29.98F
A. F. ACADEMY  CLOUDY    65  32  29 E8        29.99S
ELLICOTT       TSTM     N/A N/A N/A SW10G41   30.03R
FALCON         LGT RAIN  64  31  29 NW12      30.04R
FORT CARSON    PTSUNNY   68  40  35 S6        29.95R
LIMON          CLOUDY    68  35  29 S18G30    29.92F
MONUMENT HILL  CLOUDY    63  34  34 S10       30.01F
TRINIDAD       CLOUDY    71  31  22 W18G28    29.97R
$$

COZ042>045-048>051-090-091-030000-
...NORTHEAST COLORADO...

CITY           SKY/WX    TMP DP  RH WIND       PRES   REMARKS
GREELEY ARPT   CLOUDY    73  34  23 SW17      29.88R
AKRON          PTSUNNY   75  40  28 NE9       29.87S
BURLINGTON     CLOUDY    79  34  19 VRB3      29.85S
WRAY           CLOUDY    81  34  18 W8        29.82R
STERLING       PTSUNNY   70  43  37 NW13G18   29.85R THUNDER
HOLYOKE        NOT AVBL
FORT MORGAN    PTSUNNY  N/A N/A N/A CALM      29.86S
$$

COZ086-089-092>099-030000-
...SOUTHEAST COLORADO...

CITY           SKY/WX    TMP DP  RH WIND       PRES   REMARKS
PUEBLO         CLOUDY    74  31  20 W30G39    29.92R
LA JUNTA       PTSUNNY   85  32  15 S12       29.82F
LAMAR          PTSUNNY   85  45  24 E8        29.79F
SPRINGFIELD      N/A     75  35  23 S32G39    29.88R
$$


USA.gov is the U.S. government's official web portal to all federal, state and local government web resources and services.